Regional Weather Roundup
Issued by NWS

Home | Current Version | Previous Version | Text Only | Print | Product List | Glossary On
Versions: 1 2 3 4 5 6 7 8 9 10 11 12 13 14 15 16 17 18 19 20 21 22 23 24 25 26 27 28 29 30 31 32 33 34 35 36 37 38 39 40 41 42 43 44 45 46 47 48 49 50
000
ASUS43 KTOP 200959
RWRKS

WEATHER ROUNDUP FOR KANSAS
NATIONAL WEATHER SERVICE GOODLAND KS
500 AM CDT WED SEP 20 2017

NOTE:  "FAIR" INDICATES FEW OR NO CLOUDS BELOW 12,000 FEET WITH NO
SIGNIFICANT WEATHER AND/OR OBSTRUCTIONS TO VISIBILITY.

KSZ001>006-013>018-027>032-041>047-201100-
NORTHWEST KANSAS

CITY           SKY/WX    TMP DP  RH WIND       PRES   REMARKS
GOODLAND       CLOUDY    44  34  67 NW8       29.89R
HAYS           CLEAR     61  42  49 N15       29.77R
HILL CITY      CLEAR     57  39  51 NW10      29.82R
RUSSELL        CLEAR     62  45  53 NW14      29.73R
$$

KSZ061>065-074>080-084>089-201100-
SOUTHWEST KANSAS

CITY           SKY/WX    TMP DP  RH WIND       PRES   REMARKS
DODGE CITY     CLEAR     59  38  45 N14       29.78R
ELKHART          N/A     55  36  49 N12         N/A
GARDEN CITY    CLOUDY    55  33  43 N17       29.82R
GREAT BEND     CLEAR     64  44  48 NW8       29.75R
LIBERAL        CLOUDY    57  39  51 N13       29.81R
$$

KSZ066>073-081>083-090>101-201100-
SOUTHEAST KANSAS

CITY           SKY/WX    TMP DP  RH WIND       PRES   REMARKS
CHANUTE        CLOUDY    75  71  87 S12       29.75F
COFFEYVILLE    CLOUDY    76  71  85 S14       29.76S
HUTCHINSON     CLEAR     74  62  66 W7        29.72R
MEDICINE LODGE   N/A     75  62  64 SW8       29.72R
NEWTON         CLEAR     75  65  70 S17G28    29.71R
WICHITA INTL   PTCLDY    75  66  73 S16       29.69S
WICHITA JABRA  PTCLDY    75  68  78 S16       29.69S
WINFIELD       PTCLDY    75  69  81 S15       29.72F
$$

KSZ007>012-019>026-033>040-048>060-102>105-201100-
NORTHEAST KANSAS

CITY           SKY/WX    TMP DP  RH WIND       PRES   REMARKS
CONCORDIA      CLEAR     65  54  67 N9        29.70R
EMPORIA        CLOUDY    74  68  81 S17       29.70R
LAWRENCE       MOCLDY    76  70  82 S14G25    29.69S
MANHATTAN      CLEAR     76  69  79 SW6       29.68R
OLATHE IND     PTCLDY    74  69  85 S15       29.73S
OLATHE EXE     CLOUDY    74  70  87 S17       29.74R
SALINA         CLEAR     76  62  62 S8        29.68S
TOPEKA BILLARD PTCLDY    77  71  82 S14G29    29.68R
TOPEKA FORBES  PTCLDY    77  70  79 S15       29.69S
$$




USA.gov is the U.S. government's official web portal to all federal, state and local government web resources and services.